Time,TemperatureF,DewpointF,PressureIn,WindDirection,WindDirectionDegrees,WindSpeedMPH,WindSpeedGustMPH,Humidity,HourlyPrecipIn,Conditions,Clouds,dailyrainin,SoftwareType,DateUTC
2013-05-29 00:00:00,65.0,61.0,29.72,South,182,1.0,-999.0,88,-99.99,,,0.00,weatherlink.com 1.10,2013-05-29 07:00:00,
2013-05-29 00:15:00,64.8,61.0,29.72,South,178,0.0,-999.0,88,-99.99,,,0.00,weatherlink.com 1.10,2013-05-29 07:15:00,
2013-05-29 00:30:00,64.4,61.0,29.72,SSW,196,1.0,-999.0,88,-99.99,,,0.00,weatherlink.com 1.10,2013-05-29 07:30:00,
2013-05-29 00:45:00,64.1,61.0,29.72,SSE,155,3.0,-999.0,88,-99.99,,,0.00,weatherlink.com 1.10,2013-05-29 07:45:00,
2013-05-29 01:00:00,64.0,60.0,29.71,South,186,1.0,-999.0,88,-99.99,,,0.00,weatherlink.com 1.10,2013-05-29 08:00:00,
2013-05-29 01:15:00,63.8,60.0,29.71,SSE,163,3.0,-999.0,88,-99.99,,,0.00,weatherlink.com 1.10,2013-05-29 08:15:00,
2013-05-29 01:30:00,63.6,60.0,29.71,SE,146,2.0,-999.0,88,-99.99,,,0.00,weatherlink.com 1.10,2013-05-29 08:30:00,
2013-05-29 01:45:00,63.4,60.0,29.71,SSE,164,0.0,-999.0,88,-99.99,,,0.00,weatherlink.com 1.10,2013-05-29 08:45:00,
2013-05-29 02:00:00,63.1,60.0,29.71,SSE,161,0.0,-999.0,89,-99.99,,,0.00,weatherlink.com 1.10,2013-05-29 09:00:00,
2013-05-29 02:15:00,63.0,60.0,29.71,South,173,2.0,-999.0,89,-99.99,,,0.00,weatherlink.com 1.10,2013-05-29 09:15:00,
2013-05-29 02:30:00,63.1,60.0,29.71,South,173,1.0,-999.0,89,-99.99,,,0.00,weatherlink.com 1.10,2013-05-29 09:30:00,
2013-05-29 02:45:00,62.7,59.0,29.71,South,173,0.0,-999.0,88,-99.99,,,0.00,weatherlink.com 1.10,2013-05-29 09:45:00,
2013-05-29 03:00:00,62.7,59.0,29.70,SSW,201,1.0,-999.0,88,-99.99,,,0.00,weatherlink.com 1.10,2013-05-29 10:00:00,
2013-05-29 03:15:00,62.7,59.0,29.70,SE,124,0.0,-999.0,88,-99.99,,,0.00,weatherlink.com 1.10,2013-05-29 10:15:00,
2013-05-29 03:30:00,62.5,59.0,29.70,SSW,194,3.0,-999.0,88,-99.99,,,0.00,weatherlink.com 1.10,2013-05-29 10:30:00,
2013-05-29 03:45:00,62.6,59.0,29.70,South,178,0.0,-999.0,88,-99.99,,,0.00,weatherlink.com 1.10,2013-05-29 10:45:00,
2013-05-29 04:00:00,62.6,59.0,29.70,SSE,168,2.0,-999.0,88,-99.99,,,0.00,weatherlink.com 1.10,2013-05-29 11:00:00,
2013-05-29 04:15:00,62.6,59.0,29.70,SE,129,2.0,-999.0,88,-99.99,,,0.00,weatherlink.com 1.10,2013-05-29 11:15:00,
2013-05-29 04:30:00,62.6,59.0,29.70,SSE,164,0.0,-999.0,88,-99.99,,,0.00,weatherlink.com 1.10,2013-05-29 11:30:00,
2013-05-29 04:45:00,62.7,59.0,29.70,ESE,123,1.0,-999.0,88,-99.99,,,0.00,weatherlink.com 1.10,2013-05-29 11:45:00,
2013-05-29 05:00:00,62.7,59.0,29.70,SE,125,1.0,-999.0,88,-99.99,,,0.00,weatherlink.com 1.10,2013-05-29 12:00:00,
2013-05-29 05:15:00,62.6,59.0,29.70,SE,128,3.0,-999.0,88,-99.99,,,0.00,weatherlink.com 1.10,2013-05-29 12:15:00,
2013-05-29 05:30:00,62.6,59.0,29.71,SE,146,0.0,-999.0,88,-99.99,,,0.00,weatherlink.com 1.10,2013-05-29 12:30:00,
2013-05-29 05:45:00,62.6,59.0,29.71,SSE,147,0.0,-999.0,87,-99.99,,,0.00,weatherlink.com 1.10,2013-05-29 12:45:00,
2013-05-29 06:00:00,62.3,58.0,29.71,SSE,147,0.0,-999.0,87,-99.99,,,0.00,weatherlink.com 1.10,2013-05-29 13:00:00,
2013-05-29 06:15:00,62.5,59.0,29.72,SSE,147,0.0,-999.0,88,-99.99,,,0.00,weatherlink.com 1.10,2013-05-29 13:15:00,
2013-05-29 06:30:00,62.8,59.0,29.73,SSE,147,3.0,-999.0,88,-99.99,,,0.00,weatherlink.com 1.10,2013-05-29 13:30:00,
2013-05-29 06:45:00,63.0,59.0,29.73,SE,140,1.0,-999.0,87,-99.99,,,0.00,weatherlink.com 1.10,2013-05-29 13:45:00,
2013-05-29 07:00:00,63.3,59.0,29.72,South,184,0.0,-999.0,87,-99.99,,,0.00,weatherlink.com 1.10,2013-05-29 14:00:00,
2013-05-29 07:15:00,64.0,60.0,29.73,South,184,0.0,-999.0,86,-99.99,,,0.00,weatherlink.com 1.10,2013-05-29 14:15:00,
2013-05-29 07:31:00,64.7,60.0,29.73,SSE,153,1.0,-999.0,85,-99.99,,,0.00,weatherlink.com 1.10,2013-05-29 14:31:00,
2013-05-29 07:46:00,65.0,60.0,29.73,South,178,0.0,-999.0,84,-99.99,,,0.00,weatherlink.com 1.10,2013-05-29 14:46:00,
2013-05-29 08:01:00,65.7,60.0,29.74,South,187,3.0,-999.0,82,-99.99,,,0.00,weatherlink.com 1.10,2013-05-29 15:01:00,
2013-05-29 08:16:00,66.6,61.0,29.74,SSE,160,3.0,-999.0,81,-99.99,,,0.00,weatherlink.com 1.10,2013-05-29 15:16:00,
2013-05-29 08:31:00,66.7,61.0,29.73,SSW,198,2.0,-999.0,81,-99.99,,,0.00,weatherlink.com 1.10,2013-05-29 15:31:00,
2013-05-29 08:46:00,67.8,61.0,29.74,SSW,204,2.0,-999.0,78,-99.99,,,0.00,weatherlink.com 1.10,2013-05-29 15:46:00,
2013-05-29 09:01:00,68.9,61.0,29.74,South,173,0.0,-999.0,76,-99.99,,,0.00,weatherlink.com 1.10,2013-05-29 16:01:00,
2013-05-29 09:16:00,70.1,61.0,29.74,South,184,4.0,-999.0,74,-99.99,,,0.00,weatherlink.com 1.10,2013-05-29 16:16:00,
2013-05-29 09:31:00,71.0,62.0,29.74,WSW,244,1.0,-999.0,72,-99.99,,,0.00,weatherlink.com 1.10,2013-05-29 16:31:00,
2013-05-29 09:46:00,71.4,62.0,29.74,SW,235,5.0,-999.0,73,-99.99,,,0.00,weatherlink.com 1.10,2013-05-29 16:46:00,
2013-05-29 10:01:00,71.4,62.0,29.74,SW,232,5.0,-999.0,72,-99.99,,,0.00,weatherlink.com 1.10,2013-05-29 17:01:00,
2013-05-29 10:16:00,71.6,62.0,29.74,SSW,196,9.0,-999.0,72,-99.99,,,0.00,weatherlink.com 1.10,2013-05-29 17:16:00,
2013-05-29 10:31:00,72.1,62.0,29.74,SW,234,4.0,-999.0,70,-99.99,,,0.00,weatherlink.com 1.10,2013-05-29 17:31:00,
2013-05-29 10:46:00,72.5,62.0,29.74,WSW,241,1.0,-999.0,70,-99.99,,,0.00,weatherlink.com 1.10,2013-05-29 17:46:00,
2013-05-29 11:01:00,72.7,62.0,29.74,SSW,200,3.0,-999.0,70,-99.99,,,0.00,weatherlink.com 1.10,2013-05-29 18:01:00,
2013-05-29 11:16:00,72.6,62.0,29.74,WSW,251,4.0,-999.0,70,-99.99,,,0.00,weatherlink.com 1.10,2013-05-29 18:16:00,
2013-05-29 11:31:00,73.0,63.0,29.74,SSW,209,3.0,-999.0,71,-99.99,,,0.00,weatherlink.com 1.10,2013-05-29 18:31:00,
2013-05-29 11:46:00,73.6,63.0,29.74,SW,226,7.0,-999.0,69,-99.99,,,0.00,weatherlink.com 1.10,2013-05-29 18:46:00,
2013-05-29 12:01:00,73.8,63.0,29.73,SW,219,5.0,-999.0,69,-99.99,,,0.00,weatherlink.com 1.10,2013-05-29 19:01:00,
2013-05-29 12:16:00,74.0,64.0,29.73,South,188,5.0,-999.0,70,-99.99,,,0.00,weatherlink.com 1.10,2013-05-29 19:16:00,
2013-05-29 12:31:00,74.3,64.0,29.73,SW,223,10.0,-999.0,70,-99.99,,,0.00,weatherlink.com 1.10,2013-05-29 19:31:00,
2013-05-29 12:46:00,73.8,63.0,29.73,WSW,240,2.0,-999.0,70,-99.99,,,0.00,weatherlink.com 1.10,2013-05-29 19:46:00,
2013-05-29 13:01:00,73.4,63.0,29.72,SSW,198,3.0,-999.0,71,-99.99,,,0.00,weatherlink.com 1.10,2013-05-29 20:01:00,
2013-05-29 13:16:00,73.3,64.0,29.72,SSW,205,4.0,-999.0,73,-99.99,,,0.00,weatherlink.com 1.10,2013-05-29 20:16:00,
2013-05-29 13:31:00,74.2,64.0,29.71,SSW,194,4.0,-999.0,70,-99.99,,,0.00,weatherlink.com 1.10,2013-05-29 20:31:00,
2013-05-29 13:46:00,74.5,65.0,29.70,WSW,252,5.0,-999.0,71,-99.99,,,0.00,weatherlink.com 1.10,2013-05-29 20:46:00,
2013-05-29 14:01:00,74.3,64.0,29.70,West,261,6.0,-999.0,71,-99.99,,,0.00,weatherlink.com 1.10,2013-05-29 21:01:00,
2013-05-29 14:16:00,75.1,65.0,29.69,WSW,257,4.0,-999.0,70,-99.99,,,0.00,weatherlink.com 1.10,2013-05-29 21:16:00,
2013-05-29 14:31:00,75.3,64.0,29.69,SW,230,4.0,-999.0,69,-99.99,,,0.00,weatherlink.com 1.10,2013-05-29 21:31:00,
2013-05-29 14:46:00,75.7,65.0,29.69,SSW,211,4.0,-999.0,69,-99.99,,,0.00,weatherlink.com 1.10,2013-05-29 21:46:00,
2013-05-29 15:01:00,76.9,64.0,29.68,SSW,198,3.0,-999.0,65,-99.99,,,0.00,weatherlink.com 1.10,2013-05-29 22:01:00,
2013-05-29 15:16:00,77.7,64.0,29.68,SW,215,9.0,-999.0,63,-99.99,,,0.00,weatherlink.com 1.10,2013-05-29 22:16:00,
2013-05-29 15:31:00,78.4,63.0,29.68,SW,219,2.0,-999.0,60,-99.99,,,0.00,weatherlink.com 1.10,2013-05-29 22:31:00,
2013-05-29 15:46:00,81.3,62.0,29.67,ENE,59,3.0,-999.0,53,-99.99,,,0.00,weatherlink.com 1.10,2013-05-29 22:46:00,
2013-05-29 16:01:00,82.9,59.0,29.66,West,273,1.0,-999.0,44,-99.99,,,0.00,weatherlink.com 1.10,2013-05-29 23:01:00,
2013-05-29 16:17:00,82.6,59.0,29.66,NNW,346,1.0,-999.0,44,-99.99,,,0.00,weatherlink.com 1.10,2013-05-29 23:17:00,
2013-05-29 16:32:00,83.4,57.0,29.66,West,281,5.0,-999.0,41,-99.99,,,0.00,weatherlink.com 1.10,2013-05-29 23:32:00,
2013-05-29 16:47:00,83.4,62.0,29.66,SW,224,6.0,-999.0,49,-99.99,,,0.00,weatherlink.com 1.10,2013-05-29 23:47:00,
2013-05-29 17:02:00,79.5,62.0,29.66,SSW,213,0.0,-999.0,55,-99.99,,,0.00,weatherlink.com 1.10,2013-05-30 00:02:00,
2013-05-29 17:17:00,78.6,62.0,29.66,SW,214,3.0,-999.0,56,-99.99,,,0.00,weatherlink.com 1.10,2013-05-30 00:17:00,
2013-05-29 17:32:00,78.3,62.0,29.65,SSE,154,0.0,-999.0,58,-99.99,,,0.00,weatherlink.com 1.10,2013-05-30 00:32:00,
2013-05-29 17:47:00,75.7,62.0,29.65,SW,223,2.0,-999.0,62,-99.99,,,0.00,weatherlink.com 1.10,2013-05-30 00:47:00,
2013-05-29 18:02:00,75.3,62.0,29.65,SW,232,3.0,-999.0,64,-99.99,,,0.00,weatherlink.com 1.10,2013-05-30 01:02:00,
2013-05-29 18:17:00,75.5,63.0,29.65,South,191,0.0,-999.0,65,-99.99,,,0.00,weatherlink.com 1.10,2013-05-30 01:17:00,
2013-05-29 18:32:00,74.6,63.0,29.65,South,178,1.0,-999.0,67,-99.99,,,0.00,weatherlink.com 1.10,2013-05-30 01:32:00,
2013-05-29 18:47:00,74.0,61.0,29.65,SW,219,4.0,-999.0,65,-99.99,,,0.00,weatherlink.com 1.10,2013-05-30 01:47:00,
2013-05-29 19:02:00,73.1,62.0,29.65,SSW,206,2.0,-999.0,69,-99.99,,,0.00,weatherlink.com 1.10,2013-05-30 02:02:00,
2013-05-29 19:17:00,72.2,63.0,29.65,SSE,160,2.0,-999.0,72,-99.99,,,0.00,weatherlink.com 1.10,2013-05-30 02:17:00,
2013-05-29 19:32:00,71.2,63.0,29.66,SSE,157,4.0,-999.0,75,-99.99,,,0.00,weatherlink.com 1.10,2013-05-30 02:32:00,
2013-05-29 19:47:00,69.6,63.0,29.66,SW,219,5.0,-999.0,79,-99.99,,,0.00,weatherlink.com 1.10,2013-05-30 02:47:00,
2013-05-29 20:02:00,68.9,63.0,29.66,SSW,210,0.0,-999.0,81,-99.99,,,0.00,weatherlink.com 1.10,2013-05-30 03:02:00,
2013-05-29 20:17:00,68.5,63.0,29.67,SW,214,4.0,-999.0,82,-99.99,,,0.00,weatherlink.com 1.10,2013-05-30 03:17:00,
2013-05-29 20:32:00,67.9,63.0,29.67,South,184,2.0,-999.0,83,-99.99,,,0.00,weatherlink.com 1.10,2013-05-30 03:32:00,
2013-05-29 20:47:00,67.6,63.0,29.68,SSE,147,0.0,-999.0,84,-99.99,,,0.00,weatherlink.com 1.10,2013-05-30 03:47:00,
2013-05-29 21:02:00,67.4,62.0,29.68,South,180,1.0,-999.0,84,-99.99,,,0.00,weatherlink.com 1.10,2013-05-30 04:02:00,
2013-05-29 21:17:00,66.9,62.0,29.68,South,180,1.0,-999.0,84,-99.99,,,0.00,weatherlink.com 1.10,2013-05-30 04:17:00,
2013-05-29 21:32:00,66.6,62.0,29.69,SSW,209,2.0,-999.0,85,-99.99,,,0.00,weatherlink.com 1.10,2013-05-30 04:32:00,
2013-05-29 21:47:00,66.2,62.0,29.69,SSW,209,0.0,-999.0,85,-99.99,,,0.00,weatherlink.com 1.10,2013-05-30 04:47:00,
2013-05-29 22:02:00,65.9,61.0,29.70,SSE,168,2.0,-999.0,85,-99.99,,,0.00,weatherlink.com 1.10,2013-05-30 05:02:00,
2013-05-29 22:17:00,65.4,61.0,29.71,South,172,3.0,-999.0,86,-99.99,,,0.00,weatherlink.com 1.10,2013-05-30 05:17:00,
2013-05-29 22:32:00,64.9,61.0,29.71,South,172,0.0,-999.0,86,-99.99,,,0.00,weatherlink.com 1.10,2013-05-30 05:32:00,
2013-05-29 22:47:00,64.5,61.0,29.71,SSW,209,3.0,-999.0,87,-99.99,,,0.00,weatherlink.com 1.10,2013-05-30 05:47:00,
2013-05-29 23:02:00,64.2,60.0,29.71,SW,228,2.0,-999.0,87,-99.99,,,0.00,weatherlink.com 1.10,2013-05-30 06:02:00,
2013-05-29 23:17:00,64.1,60.0,29.71,SW,228,1.0,-999.0,87,-99.99,,,0.00,weatherlink.com 1.10,2013-05-30 06:17:00,
2013-05-29 23:32:00,63.9,60.0,29.72,SSW,208,3.0,-999.0,87,-99.99,,,0.00,weatherlink.com 1.10,2013-05-30 06:32:00,
2013-05-29 23:47:00,63.8,60.0,29.71,SSW,208,0.0,-999.0,87,-99.99,,,0.00,weatherlink.com 1.10,2013-05-30 06:47:00,